Regional Weather Roundup
Issued by NWS

Home | Current Version | Previous Version | Graphics & Text | Print | Product List | Glossary On
Versions: 1 2 3 4 5 6 7 8 9 10 11 12 13 14 15 16 17 18 19 20 21 22 23 24 25 26 27 28 29 30 31 32 33 34 35 36 37 38 39 40 41 42 43 44 45 46 47 48 49 50
000
ASUS45 KBOU 070007
RWRCO

WEATHER ROUNDUP FOR COLORADO
NATIONAL WEATHER SERVICE DENVER/BOULDER CO
500 PM MST SAT FEB 06 2016

NOTE: "FAIR" INDICATES FEW OR NO CLOUDS BELOW 12000 FEET WITH NO
SIGNIFICANT WEATHER AND/OR OBSTRUCTIONS TO VISIBILITY.

COZ001>005-013-030-031-070100-
...NORTHWEST COLORADO...

CITY           SKY/WX    TMP DP  RH WIND       PRES   REMARKS
CRAIG          CLOUDY    17  10  74 CALM      30.39R
HAYDEN         CLOUDY    16   7  67 S6        30.37R WCI   7
MEEKER         CLOUDY    21  12  68 CALM      30.37F
MOUNT WERNER   NOT AVBL
STEAMBOAT SPGS CLOUDY    20  11  67 CALM      30.36F
WALDEN         CLOUDY    30  12  47 SW18      30.27S WCI  18
$$

COZ006>008-011-070100-
...WEST CENTRAL VALLEYS...

CITY           SKY/WX    TMP DP  RH WIND       PRES   REMARKS
GRAND JUNCTION CLOUDY    20  14  77 N5        30.49R WCI  13
MONTROSE       CLOUDY    28  14  55 N5        30.44F WCI  23
EAGLE          CLEAR     27  16  63 CALM      30.41F
RIFLE          CLOUDY    25  11  55 CALM      30.44F
DELTA          CLOUDY    32  15  48 CALM      30.46F
NUCLA          CLOUDY    34  14  44 CALM      30.44F
$$

COZ017>023-064>068-070100-
...SOUTHWEST COLORADO...

CITY           SKY/WX    TMP DP  RH WIND       PRES   REMARKS
DURANGO        CLEAR     29  13  51 E5        30.37F WCI  24
CORTEZ         CLEAR     36  21  54 W13       30.39F
PAGOSA SPRINGS CLEAR     34  14  44 CALM      30.36S
TELLURIDE      CLOUDY    34  12  40 W6        30.39S WCI  28
WOLF CREEK PAS CLOUDY    27  10  50 W5        30.41S WCI  21
$$

COZ009-010-012-014-032>034-037-058>063-070100-
...CENTRAL COLORADO...

CITY           SKY/WX    TMP DP  RH WIND       PRES   REMARKS
ASPEN          CLOUDY    24  13  62 NW6       30.36S WCI  17
BUENA VISTA    CLOUDY    37  16  43 NW13      30.26F
COPPER MTN     CLOUDY    23  12  63 W13G22    30.35F WCI  11
BERTHOUD PASS    N/A     12   1  62 NW43G54   30.24R HAZE    WCI -12
COTTONWOOD PAS CLOUDY    36   9  32 W21G33    30.29F
GUNNISON       CLOUDY     7  -6  56 NE8       30.46F WCI  -6
KREMMLING      CLOUDY    10   1  67 CALM      30.40F
LEADVILLE      CLOUDY    27  11  51 W9G17     30.32S WCI  18
MONARCH PASS     N/A     16  12  86 MISG      30.43S
SALIDA         NOT AVBL
SUNLIGHT       CLEAR     27  21  80 CALM        N/A
WILKERSON PASS CLOUDY    27   9  46 NW10G20   30.31F WCI  17
$$

COZ069>075-070100-
...SAN LUIS VALLEY/SANGRE DE CRISTO MOUNTAINS...

CITY           SKY/WX    TMP DP  RH WIND       PRES   REMARKS
ALAMOSA        CLOUDY    31  10  41 W8        30.33S WCI  23
LA VETA PASS   CLOUDY    23  10  58 MISG      30.27F
SAGUACHE       CLOUDY    28  12  50 CALM      30.34F
$$

COZ035-036-038>040-070100-
...NORTHERN COLORADO FRONT RANGE...

CITY           SKY/WX    TMP DP  RH WIND       PRES   REMARKS
DENVER INTL AP MOCLDY    46  20  35 W16       30.08S
DMNS CITY PARK   N/A     51  13  22 W5G13     30.08S
AURORA         PTCLDY    47  20  34 SW9       30.09F
FRONT RANGE AP MOCLDY    45  21  39 SW14      30.08F
ERIE MUNI ARPT CLOUDY    47  19  31 CALM      30.07S
BOULDER MUN AP CLOUDY    50  16  25 NW6       30.08R
CENTENNIAL     MOCLDY    47  17  30 W7        30.10F
BROOMFIELD     MOCLDY    46  16  29 W24G33    30.10S
FORT COLLINS   CLOUDY    34  21  60 CALM      30.08F
LONGMONT       CLOUDY    42  25  50 NW3       30.09R
$$

COZ041-046-047-076>085-087-088-070100-
...PIKES PEAK/PALMER DIVIDE AND SOUTHERN FOOTHILLS...

CITY           SKY/WX    TMP DP  RH WIND       PRES   REMARKS
COLO. SPRINGS  CLOUDY    39   8  27 E5        30.15S
A. F. ACADEMY  CLOUDY    44  14  29 VRB3      30.14S
SCHRIEVER AFB  FAIR      36  15  42 N3        30.15S
ELLICOTT       NOT AVBL
FALCON         CLOUDY    38  11  33 W3        30.16S
FORT CARSON    CLEAR     37  17  45 VRB1      30.13F
LIMON          CLOUDY    25  17  72 N6        30.12F WCI  18
MONUMENT HILL  CLEAR     37  18  44 SW5       30.17R
TRINIDAD       CLEAR     52   9  17 CALM      30.17S
$$

COZ042>045-048>051-090-091-070100-
...NORTHEAST COLORADO...

CITY           SKY/WX    TMP DP  RH WIND       PRES   REMARKS
GREELEY ARPT   CLOUDY    28  19  69 NW3       30.09R
AKRON          CLOUDY    37  24  59 SW15      30.05F
BURLINGTON     CLOUDY    35  23  61 SW14      30.09F WCI  26
WRAY           CLOUDY    40  28  62 SW12      30.05F
STERLING       CLOUDY    30  23  74 SW8       30.04S WCI  23
HOLYOKE        CLOUDY    36  27  69 W10       30.03F
FORT MORGAN    CLOUDY    31  19  62 W12       30.07S WCI  22
$$

COZ086-089-092>099-070100-
...SOUTHEAST COLORADO...

CITY           SKY/WX    TMP DP  RH WIND       PRES   REMARKS
PUEBLO         CLEAR     39  23  52 NE6       30.13S
LA JUNTA       CLEAR     40  27  59 N6        30.13F
LAMAR          CLOUDY    47  21  35 SW3       30.11F
SPRINGFIELD      N/A     51  10  19 S3        30.13F
$$




USA.gov is the U.S. government's official web portal to all federal, state and local government web resources and services.